Flag for United Kingdom Weather past 2 weeks in York, England, United Kingdom

Now
57 °F

Overcast.


Feels Like: 52 °F
Forecast: 52 / 55 °F
Wind: 28 mph from West

Location: Linton-On-Ouse

Current Time: Dec 22, 2014 at 5:06:22 AM

Latest Report: Dec 22, 2014 at 3:50 AM


Visibility: N/A

Pressure: 29.71 "Hg

Humidity: 100%

Dew point: 57 °F

Location of YorkLocation

Historic Weather in York — Graph

°F

York temperature yesterday

Maximum temperature yesterday: 57 °F (at 10:50 PM)
Minimum temperature yesterday: 45 °F (at 8:50 AM)
Average temperature yesterday: 50 °F

Past Weeks' High & Low Weather Summary

 TemperatureHumidityPressure
High57 °F (Dec 18, 12:50 PM)100% (Dec 12, 1:50 AM)30.30 "Hg (Dec 12, 1:50 AM)
Low27 °F (Dec 13, 8:50 AM)57% (Dec 16, 12:50 PM)29.15 "Hg (Dec 12, 3:50 AM)
Average43 °F85%29.76 "Hg
* Reported Dec 7 2:50 AM — Dec 22 2:50 AM, York, Weather by CustomWeather, © 2014

Note: Actual official high and low records may vary slightly from our data, if they occured in-between our weather recording intervals... More about our weather records

Advertising

York weather history for previous 24 hours

 ConditionsComfort  
Time TempWeatherWind HumidityBarometerVisibility
2:50 AM
Dec 22
57 °FOvercast.29 mph100%29.74 "HgN/A
1:50 AM55 °FOvercast.24 mph100%29.77 "HgN/A
12:50 AM55 °FPassing clouds.30 mph100%29.80 "HgN/A
11:50 PM
Dec 21
57 °FPartly cloudy.31 mph100%29.80 "HgN/A
10:50 PM57 °FPassing clouds.35 mph94%29.80 "HgN/A
9:50 PM55 °FOvercast.28 mph100%29.83 "HgN/A
8:50 PM55 °FPassing clouds.29 mph100%29.83 "HgN/A
7:50 PM55 °FPassing clouds.31 mph100%29.83 "HgN/A
6:50 PM54 °FPassing clouds.15 mph100%29.89 "HgN/A
5:50 PM52 °FPassing clouds.16 mph100%29.89 "HgN/A
4:50 PM54 °FPassing clouds.14 mph94%29.89 "HgN/A
3:50 PM52 °FPassing clouds.24 mph100%29.92 "HgN/A
2:50 PM52 °FPartly sunny.22 mph100%29.95 "HgN/A
1:50 PM50 °FBroken clouds.24 mph100%29.98 "Hg4 mi
12:50 PM48 °FPartly sunny.22 mph100%30.01 "Hg4 mi
11:50 AM48 °FPartly sunny.18 mph100%30.04 "HgN/A
10:50 AM46 °FPartly sunny.9 mph100%30.07 "HgN/A
9:50 AM46 °FPartly sunny.16 mph100%30.09 "HgN/A
8:50 AM45 °FScattered clouds.13 mph100%30.12 "HgN/A
7:50 AM46 °FPassing clouds.17 mph100%30.12 "HgN/A
6:50 AM46 °FPassing clouds.8 mph100%30.12 "HgN/A
5:50 AM46 °FPartly cloudy.15 mph71%30.18 "HgN/A
Weather by CustomWeather, © 2014

See weather overviewHow to use our weather pages